Wind_Speed
24 21 19 18 20 22 23 23 21 21 22 21 21 18 17 17 18 18 17 17 16 15 15 14 15 15 15 15 14 13 13 14 15 15 15 15 15 15 15 14 15 15 17 17
25 24 22 19 18 19 22 22 22 23 23 23 22 21 19 20 19 19 19 19 18 16 16 16 15 15 15 15 15 15 14 14 14 15 16 15 15 14 15 16 16 16 17 18
25 22 21 21 20 20 21 21 22 24 25 24 24 23 22 21 21 19 20 19 19 18 17 17 16 16 16 16 16 16 16 15 15 16 16 16 16 16 16 16 16 17 18 18
25 23 23 21 21 21 21 23 25 28 28 25 24 23 23 21 21 20 21 19 19 18 18 18 18 17 17 17 17 17 17 17 16 16 17 17 17 17 17 18 17 17 17 18
26 24 23 21 22 21 22 24 26 28 28 27 26 24 24 22 21 21 21 21 20 19 19 19 18 18 18 17 17 17 17 17 17 17 17 17 18 18 18 18 17 18 18 18
28 26 26 25 25 25 25 26 27 27 27 27 26 24 23 21 21 21 21 21 21 20 20 19 19 19 19 18 18 18 18 18 17 17 17 17 17 18 18 18 19 19 19 18
30 28 26 27 28 26 27 29 27 26 26 24 24 24 23 23 21 21 21 21 21 21 21 21 21 20 19 19 19 19 19 18 18 17 17 18 17 18 18 19 20 20 20 20
32 30 29 29 28 27 27 27 26 26 25 24 24 24 24 23 22 22 22 22 22 22 21 21 21 20 20 20 20 20 20 19 18 18 18 18 18 18 18 19 20 19 19 20
35 36 35 30 29 29 28 27 26 27 26 25 25 25 25 24 23 23 23 23 23 22 22 21 21 21 21 20 20 21 20 20 20 20 19 19 19 19 19 19 20 20 20 21
36 37 37 35 32 31 27 26 27 27 27 26 26 26 25 25 24 24 24 23 23 22 22 22 22 21 21 21 21 21 21 21 20 20 20 19 19 19 20 21 21 21 21 22
38 37 36 36 35 31 30 29 29 28 28 28 27 27 26 25 25 24 24 24 24 23 23 23 23 22 22 22 22 22 22 21 21 21 20 20 19 19 20 21 21 22 22 22
37 36 35 34 33 30 28 28 28 28 28 28 28 28 27 27 26 25 25 25 24 24 24 23 23 23 23 23 23 23 22 22 22 21 20 20 19 20 20 20 21 21 22 22
36 36 33 33 31 30 29 28 28 28 28 28 28 28 27 26 26 26 25 25 25 25 24 24 24 24 24 24 24 23 23 22 21 20 20 20 20 20 20 20 20 21 21 22
33 32 31 31 30 29 28 28 28 28 28 28 28 28 27 27 26 25 25 25 25 25 25 25 25 25 24 24 23 23 22 22 21 20 20 20 21 21 20 21 22 21 21 22
32 31 30 29 28 28 27 27 27 27 28 27 27 26 26 26 26 26 25 25 25 24 24 24 24 23 23 22 22 22 22 21 20 20 20 19 20 20 21 22 22 22 22 23
32 31 31 30 29 28 28 28 28 27 27 26 25 25 24 24 24 24 24 24 24 24 24 23 23 21 21 21 21 21 21 20 19 19 19 19 21 21 22 22 22 23 23 24
30 30 30 30 28 27 27 27 26 26 25 25 25 24 23 23 23 22 22 22 22 22 21 21 20 20 20 20 20 19 18 18 18 18 19 20 21 22 22 23 23 24 25 26
29 28 28 28 27 26 26 26 25 25 24 24 23 22 22 22 21 21 21 20 19 19 20 20 19 18 18 18 19 18 18 18 18 19 20 21 22 22 23 24 25 26 27 28
27 27 27 27 26 26 25 24 25 24 23 23 22 22 21 21 21 20 19 18 17 17 18 18 18 18 17 17 17 17 18 19 20 21 21 22 23 24 25 26 27 28 28 29
25 25 26 26 25 24 23 23 22 22 22 21 21 21 20 19 18 17 17 17 16 16 16 16 16 16 15 15 17 17 18 20 20 21 22 22 23 24 25 27 28 28 29 29
22 22 22 22 22 22 22 21 20 19 19 19 20 19 17 16 16 15 15 14 14 14 14 14 14 14 14 15 16 18 18 19 19 20 21 22 23 24 26 27 27 28 29 29
20 19 19 19 19 19 18 18 18 18 18 17 17 16 14 14 13 13 13 13 13 13 13 13 14 14 15 16 17 17 18 19 20 21 22 23 24 25 25 26 27 28 29 30
19 18 18 18 17 17 17 16 16 15 15 15 14 14 14 13 13 12 12 11 11 11 12 13 14 14 15 15 16 17 18 19 20 22 23 23 24 25 26 28 29 29 30 31
17 16 16 16 15 14 14 13 13 13 13 13 13 13 13 12 11 11 11 10 10 10 11 12 12 14 15 16 17 18 19 20 21 22 23 24 25 26 27 28 29 29 29 30
16 15 14 14 14 13 13 13 12 12 12 11 12 12 12 11 10 10 10 10 11 11 12 13 13 14 15 17 18 19 19 20 21 22 23 24 25 26 28 28 28 28 29 29
15 14 14 13 13 13 13 12 12 12 11 11 11 11 11 11 10 11 11 12 12 13 13 14 15 16 17 18 19 19 20 21 22 23 24 25 26 27 27 27 28 28 28 29
14 14 14 13 12 12 12 12 12 12 11 10 10 11 11 11 11 11 12 12 13 14 15 16 17 18 19 20 20 21 22 22 23 24 25 26 27 27 27 27 27 27 27 27
Wind_Direction
201 203 219 229 221 216 216 220 227 232 246 255 255 257 263 271 274 274 273 275 277 280 281 283 285 286 288 289 285 284 285 282 280 279 280 280 276 271 270 271 271 271 270 272
205 205 207 218 220 217 217 219 225 234 245 249 254 256 263 271 272 271 272 275 277 280 280 281 283 284 285 287 287 286 285 285 283 278 277 279 276 273 272 273 272 273 276 276
204 211 209 212 216 218 218 222 227 237 245 245 254 261 267 270 270 269 271 273 276 280 281 279 280 281 282 285 286 285 286 285 282 280 277 279 278 276 275 277 276 276 277 277
203 211 217 215 215 215 218 223 226 234 242 246 251 258 265 269 269 268 269 272 275 279 281 283 283 281 281 284 286 288 287 285 283 281 278 279 279 277 277 278 279 279 279 277
204 213 217 219 217 216 221 224 226 232 241 247 253 257 263 266 267 268 269 271 275 278 281 283 283 282 283 283 285 287 287 285 284 283 282 280 277 276 278 280 282 281 278 278
206 213 214 217 220 219 224 229 232 236 239 244 251 257 262 263 265 267 268 270 273 276 278 282 283 282 282 282 283 285 286 285 284 281 281 282 278 277 278 278 280 280 278 278
211 217 225 221 219 221 225 232 234 238 242 247 254 259 263 265 267 267 269 270 272 274 277 280 281 280 280 281 283 284 284 284 282 280 281 281 278 276 277 278 278 278 279 279
214 216 228 229 226 223 228 233 236 240 244 249 256 260 262 265 267 267 267 270 272 274 277 278 278 278 278 280 281 282 283 282 279 279 279 277 277 276 277 278 279 280 280 278
218 219 224 229 232 236 237 236 237 242 248 252 256 259 262 265 267 266 267 269 271 273 275 276 277 277 277 277 279 280 281 282 280 278 279 277 277 277 277 279 279 279 279 280
222 224 226 230 234 236 237 239 242 246 250 253 257 260 261 263 265 266 266 268 270 271 272 274 276 277 277 277 278 278 279 280 281 280 280 277 277 278 277 277 278 281 282 283
226 228 229 231 236 238 238 241 244 247 250 254 256 259 261 263 264 266 266 267 269 270 272 273 275 275 275 277 278 278 278 278 279 278 276 277 277 279 282 281 280 282 283 284
225 228 232 233 235 236 239 242 245 248 251 253 255 258 261 263 264 266 266 267 268 270 272 272 273 273 273 275 276 278 277 277 276 275 274 276 277 279 283 283 282 283 284 284
229 229 233 233 235 237 240 243 246 250 252 253 256 258 260 261 263 265 266 267 268 269 270 270 271 272 271 273 274 275 276 276 276 274 276 276 277 277 279 281 284 285 285 286
228 229 233 233 234 237 240 243 247 250 253 255 257 258 258 261 263 264 266 267 268 269 269 270 270 270 270 270 271 272 272 274 274 275 276 275 275 276 279 282 284 286 287 287
228 230 232 233 234 238 241 243 247 251 253 254 255 256 257 259 261 264 266 267 268 268 269 270 270 268 267 266 268 268 269 271 273 274 274 273 274 277 281 283 283 284 287 289
228 230 231 232 234 237 240 244 248 250 252 252 253 256 257 258 261 264 266 267 267 268 268 269 267 266 266 264 264 267 268 269 271 273 276 277 278 280 281 283 284 286 289 290
227 228 230 233 237 238 241 244 247 250 252 252 252 254 256 257 260 263 265 264 266 267 266 266 266 266 263 263 264 266 267 267 269 272 276 278 280 282 283 284 286 288 289 290
227 228 230 234 236 240 242 244 247 250 250 249 250 252 255 256 257 260 262 262 262 264 263 264 264 265 263 262 263 263 265 269 270 273 276 280 282 283 285 287 288 289 290 290
223 226 230 233 236 238 241 242 245 248 248 247 250 252 253 254 253 256 259 260 262 265 264 262 262 263 262 260 260 265 269 271 273 275 279 281 284 286 287 288 289 289 291 292
223 225 227 230 234 237 241 242 243 246 245 246 247 247 248 249 250 253 256 258 259 261 262 263 265 268 267 265 267 269 272 273 276 278 282 284 286 288 289 290 291 291 292 294
219 223 225 228 230 233 235 237 239 238 238 239 240 242 245 248 250 252 254 256 258 261 262 262 265 267 269 273 274 274 276 278 280 282 284 286 288 290 292 292 293 294 295 296
217 218 219 221 223 224 227 229 230 230 232 236 237 237 241 246 249 253 256 256 257 260 261 263 266 270 274 277 280 280 282 284 285 286 287 288 290 292 293 294 295 296 297 297
211 212 212 213 216 219 220 222 225 227 230 232 233 234 237 243 248 251 253 254 257 262 265 268 272 277 281 284 286 286 288 289 291 291 290 291 292 293 294 295 296 297 298 298
203 205 206 207 210 213 215 220 224 225 227 231 233 236 238 239 241 245 249 255 260 265 270 275 279 282 284 286 288 290 291 291 293 293 293 294 295 296 296 296 296 297 298 299
199 199 199 203 208 211 214 216 219 224 229 232 232 232 234 238 241 243 248 258 266 271 276 282 286 289 290 291 291 292 293 294 294 296 297 298 299 299 298 298 298 298 299 300
198 200 201 203 206 209 213 217 220 221 222 221 224 230 234 241 248 252 258 265 271 277 282 287 291 292 293 294 294 294 295 295 296 297 299 300 301 301 301 300 300 301 300 300
196 197 200 204 205 207 211 214 217 217 218 223 232 240 245 249 255 261 266 273 280 284 287 290 293 294 295 295 296 297 297 298 299 299 300 301 301 301 301 301 301 301 301 301
Height
5811 5815 5819 5821 5824 5827 5831 5834 5836 5837 5835 5836 5836 5836 5836 5837 5840 5842 5842 5842 5842 5843 5843 5843 5843 5842 5842 5841 5841 5841 5841 5841 5841 5840 5840 5840 5839 5840 5840 5841 5841 5841 5841 5841
5806 5810 5813 5817 5820 5823 5827 5830 5832 5832 5832 5831 5832 5832 5834 5836 5837 5838 5839 5839 5839 5839 5840 5840 5840 5840 5839 5839 5838 5838 5838 5838 5837 5837 5836 5836 5836 5836 5837 5837 5837 5837 5837 5837
5802 5806 5809 5813 5817 5820 5823 5826 5828 5827 5827 5828 5829 5830 5831 5833 5834 5834 5835 5836 5836 5836 5837 5837 5837 5837 5836 5836 5836 5835 5835 5834 5834 5833 5833 5833 5832 5833 5833 5833 5833 5833 5833 5833
5798 5802 5805 5811 5813 5816 5819 5821 5822 5822 5822 5822 5825 5827 5828 5829 5830 5831 5831 5832 5832 5833 5833 5833 5833 5833 5833 5832 5832 5831 5830 5830 5830 5830 5829 5829 5829 5829 5829 5829 5829 5829 5829 5829
5793 5797 5801 5806 5807 5810 5813 5815 5816 5817 5818 5819 5821 5823 5824 5825 5826 5827 5827 5828 5828 5829 5829 5829 5829 5829 5829 5829 5828 5828 5827 5826 5826 5826 5825 5825 5825 5825 5825 5825 5825 5825 5825 5825
5788 5792 5796 5800 5802 5804 5808 5809 5810 5812 5813 5815 5817 5819 5820 5820 5821 5822 5823 5824 5824 5825 5825 5825 5825 5825 5825 5824 5824 5824 5823 5822 5822 5822 5821 5821 5820 5821 5821 5821 5821 5821 5821 5821
5782 5786 5789 5792 5794 5798 5803 5804 5805 5807 5808 5810 5812 5814 5816 5816 5817 5818 5818 5819 5819 5820 5820 5820 5820 5820 5820 5820 5820 5819 5819 5818 5818 5817 5817 5817 5817 5817 5817 5817 5817 5817 5816 5817
5777 5781 5784 5785 5788 5791 5795 5798 5800 5802 5803 5806 5808 5809 5810 5811 5812 5813 5813 5814 5815 5815 5815 5815 5815 5815 5815 5815 5815 5814 5814 5814 5813 5813 5813 5813 5813 5812 5812 5812 5812 5812 5812 5811
5770 5774 5776 5778 5782 5785 5788 5791 5794 5797 5799 5801 5803 5804 5805 5806 5807 5808 5808 5809 5810 5810 5810 5810 5810 5810 5810 5810 5810 5810 5809 5809 5809 5809 5808 5808 5808 5808 5807 5807 5807 5806 5806 5806
5763 5766 5770 5774 5777 5780 5782 5786 5789 5791 5794 5796 5798 5799 5800 5801 5802 5802 5803 5803 5804 5804 5805 5805 5805 5805 5805 5805 5805 5804 5804 5804 5804 5804 5803 5803 5803 5803 5802 5802 5802 5801 5800 5800
5755 5760 5764 5768 5771 5774 5778 5781 5783 5786 5788 5790 5792 5793 5794 5795 5796 5796 5797 5797 5798 5799 5799 5799 5799 5799 5799 5799 5799 5799 5799 5799 5799 5798 5798 5798 5798 5798 5797 5797 5796 5796 5795 5794
5747 5753 5757 5761 5765 5768 5771 5774 5777 5779 5782 5784 5785 5787 5788 5789 5790 5790 5791 5791 5792 5792 5793 5793 5793 5793 5793 5793 5793 5793 5793 5793 5793 5793 5793 5793 5792 5792 5792 5791 5791 5790 5789 5789
5740 5745 5750 5755 5758 5762 5765 5769 5771 5773 5775 5777 5779 5780 5781 5782 5783 5784 5785 5785 5786 5786 5786 5787 5787 5787 5787 5787 5787 5787 5787 5787 5787 5787 5787 5787 5787 5787 5787 5786 5785 5785 5784 5783
5735 5740 5744 5749 5753 5756 5759 5762 5765 5767 5769 5771 5772 5774 5775 5776 5777 5778 5778 5779 5779 5780 5780 5780 5780 5781 5781 5781 5781 5781 5781 5781 5782 5782 5782 5782 5781 5781 5781 5780 5780 5778 5778 5776
5732 5736 5739 5744 5748 5751 5753 5756 5758 5761 5762 5764 5766 5767 5768 5770 5771 5771 5772 5773 5773 5773 5773 5774 5774 5774 5774 5775 5775 5775 5775 5776 5776 5776 5776 5776 5776 5775 5775 5775 5774 5772 5771 5770
5726 5731 5734 5738 5741 5744 5747 5750 5752 5754 5756 5758 5759 5761 5762 5763 5764 5765 5766 5766 5767 5767 5767 5767 5767 5768 5768 5769 5769 5769 5770 5770 5770 5771 5771 5771 5770 5770 5769 5768 5767 5766 5765 5763
5721 5725 5728 5732 5735 5737 5741 5744 5746 5748 5750 5751 5753 5755 5756 5757 5758 5759 5760 5760 5760 5761 5761 5762 5762 5762 5763 5763 5764 5764 5764 5765 5765 5765 5765 5765 5764 5763 5763 5762 5761 5759 5758 5756
5716 5719 5722 5726 5730 5732 5735 5738 5740 5742 5744 5745 5747 5749 5750 5752 5753 5754 5754 5754 5755 5755 5756 5756 5756 5757 5758 5758 5759 5759 5759 5760 5760 5760 5759 5759 5758 5757 5756 5755 5754 5752 5750 5748
5709 5713 5717 5721 5724 5727 5729 5731 5734 5736 5738 5740 5742 5744 5745 5746 5747 5748 5749 5749 5750 5751 5751 5751 5752 5752 5753 5753 5754 5754 5754 5754 5754 5754 5753 5753 5752 5751 5749 5748 5746 5744 5743 5740
5705 5709 5712 5715 5719 5721 5724 5726 5728 5731 5733 5735 5737 5738 5740 5741 5742 5743 5744 5745 5746 5746 5747 5747 5747 5748 5748 5749 5749 5749 5749 5749 5748 5748 5747 5746 5745 5743 5742 5740 5738 5736 5734 5732
5701 5704 5707 5710 5714 5717 5719 5722 5724 5727 5729 5730 5732 5734 5735 5737 5738 5739 5740 5741 5741 5742 5743 5743 5743 5744 5744 5744 5744 5744 5744 5743 5742 5742 5741 5739 5738 5736 5734 5732 5730 5728 5726 5723
5697 5700 5704 5707 5710 5713 5716 5718 5720 5723 5725 5727 5729 5730 5732 5733 5735 5736 5736 5737 5738 5738 5739 5739 5740 5740 5739 5739 5739 5738 5738 5737 5736 5735 5734 5732 5731 5729 5727 5725 5722 5720 5717 5715
5694 5698 5701 5704 5707 5710 5713 5715 5717 5719 5722 5723 5725 5727 5729 5730 5731 5732 5733 5734 5734 5735 5735 5735 5735 5735 5735 5734 5734 5733 5732 5732 5730 5729 5727 5725 5724 5721 5719 5716 5714 5711 5709 5706
5693 5696 5699 5702 5705 5708 5710 5713 5715 5717 5719 5720 5722 5724 5725 5727 5728 5729 5730 5731 5731 5732 5732 5731 5731 5731 5731 5730 5729 5728 5727 5725 5724 5722 5720 5718 5716 5714 5711 5708 5706 5703 5700 5697
5692 5695 5698 5701 5704 5706 5708 5711 5713 5715 5717 5718 5720 5721 5723 5724 5725 5726 5727 5728 5728 5728 5728 5728 5727 5726 5726 5725 5723 5722 5721 5719 5717 5716 5713 5711 5709 5706 5703 5701 5698 5695 5692 5689
5691 5695 5697 5700 5703 5705 5707 5709 5711 5713 5715 5716 5718 5719 5721 5722 5723 5723 5724 5724 5724 5724 5724 5723 5722 5721 5721 5719 5718 5716 5715 5713 5711 5709 5707 5704 5701 5699 5696 5692 5689 5687 5684 5681
5691 5694 5696 5699 5701 5704 5706 5708 5710 5711 5713 5714 5716 5717 5718 5719 5720 5720 5720 5720 5720 5720 5719 5718 5717 5716 5715 5714 5712 5710 5708 5706 5704 5702 5699 5696 5693 5690 5687 5685 5681 5679 5676 5673